Ephrata, WA
on Tuesday, February 5, 2013

Tuesday
Previous Day Next Day
Daily Summary
 ActualAverageRecord
Temperature
Mean Temperature °F 32°F  
Max Temperature 40°F 40°F 58°F (1991)
Min Temperature 28°F 25°F -1°F (1985)
Degree Days
Heating Degree Days 31 33  
Month to date heating degree days 164 166  
Since 1 July heating degree days 3600 3874  
Cooling Degree Days 0 0  
Month to date cooling degree days 0 0  
Year to date cooling degree days 0 0  
Moisture
Dew Point 32°F   
Average Humidity 90    
Maximum Humidity 100    
Minimum Humidity 79    
Precipitation
Precipitation 0.00 in 0.03 in 0.18 in (1953)
Month to date precipitation 0.00 0.13  
Year to date precipitation 0.19 1.04  
Wind
Wind Speed 4 mph   
Max Wind Speed 25 mph   
Max Gust Speed 29 mph   
Visibility 5 miles   
Events Fog   

Key: T is trace of precipitation, MM is missing value
Source: NWS Daily Summary
Time(PST)TemperatureDew PointHumidity Pressure Visibility Wind DirectionWind SpeedGust SpeedPrecipitationEvents Conditions
12:01 AM 33.8°F 32.0°F 93% 29.95 in 10.0 miles NNW 4.6 mph - N/A   Overcast
12:24 AM 33.8°F 32.0°F 93% 29.93 in 10.0 miles North 9.2 mph - N/A   Overcast
12:35 AM 33.8°F 32.0°F 93% 29.93 in 10.0 miles North 9.2 mph - N/A   Overcast
12:53 AM 35.1°F 32.0°F 89% 29.97 in 10.0 miles North 8.1 mph - N/A   Overcast
1:11 AM 35.6°F 32.0°F 87% 29.93 in 8.0 miles North 6.9 mph - N/A   Overcast
1:31 AM 35.6°F 33.8°F 93% 29.93 in 7.0 miles North 8.1 mph - N/A   Overcast
1:53 AM 35.1°F 32.0°F 89% 29.95 in 7.0 miles North 8.1 mph - N/A   Overcast
2:53 AM 33.1°F 30.9°F 92% 29.93 in 8.0 miles North 8.1 mph - N/A   Mostly Cloudy
3:53 AM 32.0°F 30.0°F 92% 29.90 in 8.0 miles North 5.8 mph - N/A   Clear
4:53 AM 32.0°F 30.0°F 92% 29.91 in 10.0 miles NNW 5.8 mph - N/A   Scattered Clouds
5:53 AM 30.9°F 28.9°F 92% 29.88 in 8.0 miles NNW 4.6 mph - N/A   Clear
6:53 AM 30.0°F 28.0°F 92% 29.87 in 8.0 miles NW 4.6 mph - N/A   Clear
7:53 AM 30.9°F 28.9°F 92% 29.89 in 6.0 miles WNW 4.6 mph - N/A   Clear
8:12 AM 33.8°F 30.2°F 87% 29.86 in 10.0 miles WNW 5.8 mph - N/A   Mostly Cloudy
8:53 AM 35.1°F 32.0°F 89% 29.88 in 9.0 miles Calm Calm - N/A   Overcast
9:53 AM 35.1°F 33.1°F 92% 29.88 in 8.0 miles Calm Calm - N/A   Overcast
10:26 AM 35.6°F 33.8°F 93% 29.86 in 1.8 miles SSW 5.8 mph - N/A   Overcast
10:42 AM 35.6°F 33.8°F 93% 29.85 in 0.8 miles Calm Calm - N/A   Overcast
10:53 AM 35.1°F 34.0°F 96% 29.89 in 1.5 miles SSW 5.8 mph - N/A   Overcast
11:07 AM 35.6°F 33.8°F 93% 29.85 in 2.0 miles SW 4.6 mph - N/A   Overcast
11:15 AM 35.6°F 33.8°F 93% 29.85 in 3.0 miles SSW 3.5 mph - N/A   Overcast
11:27 AM 35.6°F 33.8°F 93% 29.85 in 4.0 miles SSW 3.5 mph - N/A   Overcast
11:53 AM 37.0°F 34.0°F 89% 29.87 in 6.0 miles Calm Calm - N/A   Overcast
12:53 PM 37.9°F 34.0°F 86% 29.86 in 6.0 miles SSE 6.9 mph - N/A   Overcast
1:53 PM 37.0°F 34.0°F 89% 29.86 in 5.0 miles North - - N/A   Overcast
2:46 PM 39.2°F 35.6°F 87% 29.82 in 7.0 miles SSE 4.6 mph - N/A   Partly Cloudy
2:53 PM 39.0°F 34.0°F 82% 29.86 in 7.0 miles South 5.8 mph - N/A   Partly Cloudy
3:53 PM 39.0°F 35.1°F 86% 29.86 in 7.0 miles SE 3.5 mph - N/A   Clear
4:53 PM 37.0°F 33.1°F 86% 29.86 in 6.0 miles Calm Calm - N/A   Clear
5:53 PM 32.0°F 30.9°F 96% 29.87 in 4.0 miles North 5.8 mph - N/A   Clear
6:53 PM 30.9°F 28.9°F 92% 29.88 in 3.0 miles North 4.6 mph - N/A   Clear
7:02 PM 30.2°F 30.2°F 100% 29.84 in 1.5 miles NE 4.6 mph - N/A   Partly Cloudy
7:05 PM 30.2°F 28.4°F 93% 29.84 in 0.8 miles NE 5.8 mph - N/A   Mist
7:19 PM 30.2°F 28.4°F 93% 29.83 in 0.2 miles NNE 5.8 mph - N/A Fog Light Freezing Fog
7:28 PM 30.2°F 28.4°F 93% 29.84 in 0.2 miles North 4.6 mph - N/A Fog Light Freezing Fog
7:53 PM 30.9°F 30.0°F 96% 29.88 in 0.2 miles North 3.5 mph - N/A Fog Light Freezing Fog
8:53 PM 32.0°F 30.9°F 96% 29.89 in 0.2 miles NE 4.6 mph - N/A Fog Fog
9:53 PM 32.0°F 30.9°F 96% 29.91 in 0.2 miles North 6.9 mph - N/A Fog Fog
11:53 PM 30.0°F 28.9°F 96% 29.94 in 0.2 miles WSW 3.5 mph - N/A Fog Light Freezing Fog
Moon Phase
Feb. 05 Feb. 10 Feb. 17 Feb. 25 Mar. 04
Sunrise:07:17 AM (PST) Moon Rise:03:12 AM (PST)2/5
Sunset:05:06 PM (PST) Moon Set:12:21 PM (PST)2/5

Copyright © 2014 The Weather Underground, Inc.